Find Starlink 3174

NORAD ID: 51468 Int'l Des: 2022-010 Owner: SPXS Country: US Constellation: starlink operational
LEOCIRCULAR

当前视图

正在加载3D地球...

About Starlink 3174

Starlink 3174 (NORAD 51468) is a starlink constellation satellite (v1.5) launched Feb 3, 2022 by SPXS of US. It operates in LEO, CIRCULAR orbit with a mass of 297.00 kg.

关于 Starlink 3174

正在加载描述...

即将过境

Passes for default location (London). Set your location on the main map for personalized predictions.

高度历史

Loading altitude history...

两行轨道根数

1 51468U 22010N 26166.31574570 .00000270 00000-0 35075-4 0 9995
2 51468 53.1605 200.7368 0001128 85.3631 274.7490 15.08830822241254
Epoch: Jun 15, 2026 • Age: 8 hours

当前状态

高度 541.9 km
速度 7.59 km/s
星下点 -7.20°S, 57.62°E
发射日期 Feb 3, 2022
运行时间 4.3 years
类型 internet

技术详情

分类 Payload
质量 297.00 kg
干质量 275.00 kg
总质量 297.00 kg
长度 0.20 m
直径 2.80 m
跨度 9.00 m
形状 Box + pan
制造商 SPXS
平台类型 Starlink
阶段状态 In Orbit
所有者/国家 SPXS/US

Most Searched